{"data":{"norad_id":44310,"intl_designator":"2019-032A","name":"BUFENG 1A","alt_names":[],"object_type":"PAYLOAD","status":"ACTIVE","operator":null,"country":"PRC","launch_date":"2019-06-05","launch_site_code":"YSLA","launch_vehicle":null,"mission":null,"orbit_class":"UNKNOWN","rcs_meters":null,"size_class":null,"mass_kg":null,"dimensions":null,"purposes":[],"wikipedia_slug":null,"has_3d_model":false,"image_url":null,"decayed_at":null,"tle_current":{"epoch":"2026-09-20T04:38:53.958912Z","epoch_age_seconds":84858,"freshness":"FRESH","line1":"1 44310U 19032A   26263.19368008  .00007395  00000+0  25942-3 0  9999","line2":"2 44310  44.9690 256.6120 0009236  82.5985 277.5948 15.30032422401734","mean_motion":15.30032422,"eccentricity":0.0009236,"inclination_deg":44.969,"raan_deg":256.612,"arg_perigee_deg":82.5985,"mean_anomaly_deg":277.5948,"bstar":0.00025942,"rev_number":40173,"period_min":94.115652668176,"perigee_km":469.38525464516,"apogee_km":482.04569093289,"semimajor_km":6853.852472789,"source":"CELESTRAK","updated_at":"2026-09-20T09:00:14.457011Z"}}}